POPACS 1

Last updated on Fri Dec 19 2025 00:03:50 GMT+0000 (Coordinated Universal Time)

1 39268U 13055D 25352.03618346 .00218872 15221-4 59136-3 0 9990 2 39268 80.9527 204.6657 0108876 27.1470 333.5427 15.84713577644416
UTC large
Height (km)
Speed (km/s)
/
Latitude / Longitude
Inclination (degrees)
Orbital Period (minutes)
Azimuth
Elevation
Range (km)
Doppler Factor

Next 0 passes for location: London (51.5072 / 0.1276)

Sorry there are no passes over London.